STARLINK-5712 (55615 NORAD) Tracking and Keplerian Element Data

This shows tracking and keplerian element data for the satellite.

Feedback or suggestion? Click here.




ElementValue
Catalog55615
NameSTARLINK-5712
Epoch Orbit310
Epoch Day62.8545359
Epoch Year2023
RAAN237.787
Inclination42.9988
Eccentricity0.0002176
Argument of Perigee264.4945
Mean Anonmoly95.5675
Mean Motion15.71360384
Decay Rate0.00079083
L11 55615U 23020AY 23062.85453590 .00079083 00000+0 60065-3 0 9997
L22 55615 42.9988 237.7870 0002176 264.4945 95.5675 15.71360384 3107



Live tracking and technical data element details for STARLINK-5712 (NORAD 55615). STARLINK-5712 can be tracked NOW for your location showing map with azimuth and elevation plus other details from your city location.







IsCatalogInMostPopularTable: catalog: 55615, numindb: 4
Update: records affected: 1



GetName: 55615 STARLINK-5712

Hit Count: updated at: Wed, 22 Mar 2023 15:51:33 GMT